Welcome to the New NWS' Forecast!
Most changes are behind the scenes, but click here for differences you might notice.
Latest weather observations around

Bremerton, Bremerton National Airport (KPWT)

Using English Units (Switch to International System of Units)
Date/ Time (PST) Wind (mph) Vis. (mi) Weather Sky Cond. Temp (°F) Rel. Humidity Wind Chill (°F) Heat Index (°F) Pressure Precip. (in)
Air Dwpt 6 hour Altimeter (inHg) Sea level (inHg) 1 hr 3 hr 6 hr
Max Min
Nov 16 13:56 NE 9 10 Mostly Cloudy BKN047 52 46     80%     30.22 30.28      
Nov 16 12:56   10 Cloudy FEW013 OVC045 53 46     77%     30.22 30.28      
Nov 16 12:15 ENE 10 10 Cloudy BKN013 OVC039 54 46     77%     30.23        
Nov 16 11:56 ENE 8 10 Cloudy SCT013 OVC039 53 47     80%     30.23 30.29      
Nov 16 10:56   10 Cloudy FEW012 OVC037 51 46     83%     30.25        
Nov 16 10:47 NE 11 10 Cloudy SCT012 OVC037 52 46     82%     30.25        
Nov 16 10:20 NE 10 10 Clear   52 46     82%     30.25        
Nov 16 10:12 NE 9 10 Clear   52 46     82%     30.25        
Nov 16 09:56 NE 8 10 Clear   51 47     86%     30.25        
Nov 16 08:56 NE 7 10 Cloudy BKN006 BKN012 OVC037 50 48     93%     30.23 30.29      
Nov 16 08:51 NNE 7 10 Cloudy BKN010 OVC037 50 48     94%     30.23        
Nov 16 08:30 NNE 10 10 Cloudy SCT010 OVC037 50 48     94%     30.23        
Nov 16 07:56   10 Cloudy BKN010 OVC037 50 48     93%     30.22 30.28      
Nov 16 06:56 NE 11 10 Cloudy BKN010 OVC035 50 48     93%     30.22        
Nov 16 05:56 NNE 7 10 Cloudy SCT011 OVC035 51 48     89%     30.21 30.27      
Nov 16 04:56 Calm 10 Cloudy SCT002 OVC011 50 49     96%     30.21 30.27      
Nov 16 04:39 NE 3 10 Clear   50 48     94%     30.21        
Nov 16 03:56 Calm 10 Clear   50 49     96%     30.2 30.26      
Nov 16 03:12 Calm 10 Cloudy OVC004 50 48     94%     30.2        
Nov 16 02:56 Calm 10 Cloudy OVC006 50 49     96%     30.19 30.25      
Nov 16 01:56 Calm 10 Cloudy OVC006 51 49     92%     30.19 30.24      
Nov 16 00:56 Calm 10 Cloudy OVC006 51 49     92%     30.19        
Nov 15 23:56 SSW 6 10 Cloudy OVC006 51 49     92%     30.18 30.24      
Nov 15 22:56 S 6 10 Cloudy OVC008 50 48     93%     30.19        
Nov 15 21:56 S 7 10 Cloudy OVC008 50 48     93%     30.18 30.24      
Nov 15 21:39 SSW 8 10 Cloudy OVC008 50 46     87%     30.18        
Nov 15 20:56 S 9 10 Cloudy OVC012 50 47     89%     30.18 30.24      
Nov 15 19:56 S 8 10 Cloudy OVC012 50 47     89%     30.19 30.25      
Nov 15 19:15 S 8 10 Mostly Cloudy BKN014 50 46     87%     30.21        
Nov 15 18:56 SSW 9 10 Partly Cloudy SCT012 49 47     93% 45   30.21        
Nov 15 18:37 S 9 10 Partly Cloudy SCT012 50 46     87%     30.21        
Nov 15 18:12 S 9 10 Cloudy BKN012 OVC080 50 46     87%     30.21        
Nov 15 17:56 S 9 10 Mostly Cloudy SCT014 BKN080 50 47     89%     30.22        
Nov 15 17:42 SSW 10 10 Mostly Cloudy BKN014 BKN080 52 46     82%     30.22        
Nov 15 16:56 S 6 8 Cloudy OVC018 52 47     83%     30.23        
Nov 15 14:56 SSW 5 10 Cloudy OVC016 52 47     83%     30.25 30.31      
Nov 15 13:56 S 5 10 Cloudy OVC016 52 47     83%     30.27 30.33      
Nov 15 13:42 S 7 10 Cloudy OVC016 52 46     82%     30.27        
Nov 15 12:07 S 7 10 Cloudy BKN011 OVC017 52 46     82%     30.3        
Nov 15 11:56 S 7 10 Cloudy SCT010 OVC018 51 47     86%     30.3        
Nov 15 11:17 SSW 8 10 Cloudy OVC014 50 46     87%     30.31        
Nov 15 10:56 SSW 9 10 Cloudy OVC009 50 47     89%     30.32        
Nov 15 10:43 SW 7 10 Cloudy BKN007 OVC011 48 46     93% 45   30.33        
Nov 15 09:46 SSW 7 8 Cloudy BKN005 OVC009 48 46     93% 45   30.34        
Nov 15 08:56 SSW 6 3 Fog/Mist OVC003 48 47     96% 45   30.34        
Nov 15 07:30 S 5 3 Fog/Mist BKN003 OVC012 46 46     100% 44   30.35        
Nov 15 06:56 Calm 5 Fog/Mist OVC005 48 47     96%     30.36     0  
Nov 15 06:53 S 5 5 Fog/Mist OVC005 48 46     93% 46   30.36        
Nov 15 05:56 SW 5 5 Fog/Mist OVC006 48 47     96% 46   30.36   0    
Nov 15 05:53 SSW 3 5 Fog/Mist OVC006 48 46     93% 47   30.36   0    
Nov 15 05:34 S 5 5 Fog/Mist OVC004 48 46     93% 46   30.36   0    
Nov 15 05:13 S 3 4 Fog/Mist OVC002 48 46     93% 47   30.36   0    
Nov 15 05:05 SSW 3 2.5 Light Rain and Fog/Mist OVC002 48 46     93% 47   30.37   0    
Nov 15 04:56 Calm 1.75 Fog/Mist OVC002 48 47     96%     30.37        
Nov 15 04:47 Calm 1.75 Fog/Mist OVC002 48 46     93%     30.37        
Nov 15 04:04 WSW 3 2 Fog/Mist OVC002 48 46     93% 47   30.37        
Nov 15 03:48 SSW 3 3 Fog/Mist OVC002 48 46     93% 47   30.37        
Nov 15 03:41 S 5 2.5 Fog/Mist OVC002 48 46     93% 46   30.37        
Nov 15 03:32 S 5 3 Fog/Mist OVC002 48 46     93% 46   30.37        
Nov 15 02:56 SSW 3 2 Fog/Mist OVC002 48 47     96% 47   30.38        
Nov 15 02:51 SW 5 2.5 Fog/Mist OVC002 48 46     93% 46   30.38        
Nov 15 01:56 SSW 5 4 Fog/Mist OVC002 48 47     96% 46   30.37        
Nov 15 00:14 S 3 3 Fog/Mist OVC002 48 46     93% 47   30.38        
Nov 14 23:56 Calm 2.5 Fog/Mist OVC002 48 48     100%     30.38        
Nov 14 23:27 Calm 2.5 Fog/Mist OVC002 48 48     100%     30.38        
Nov 14 22:56 Calm 3 Fog/Mist OVC002 48 48     100%     30.38        
Nov 14 22:33 Calm 3 Fog/Mist OVC002 48 48     100%     30.38        
Nov 14 21:56 SSE 5 2 Fog/Mist OVC002 49 48     97% 47   30.37 30.42      
Nov 14 20:56 Calm 5 Fog/Mist OVC002 49 49     100%     30.36 30.41      
Nov 14 20:12 SSW 5 5 Fog/Mist OVC002 48 48     100% 46   30.34        
Nov 14 19:56 S 5 5 Fog/Mist OVC004 49 49     100% 47   30.34 30.4      
Nov 14 18:56 Calm 7 Cloudy OVC004 50 49     96%     30.34 30.4      
Nov 14 17:56 S 3 8 Cloudy OVC004 50 48     93%     30.33 30.39      
Nov 14 17:48 S 5 8 Cloudy OVC004 50 48     94%     30.33        
Nov 14 16:56 S 3 9 Cloudy OVC006 50 48     93%     30.33 30.39      
Nov 14 15:56 Calm 10 Cloudy OVC006 50 48     93%     30.34        
Nov 14 14:56 SW 6 10 Cloudy OVC006 50 48     93%     30.32 30.37      
Nov 14 14:22 SSW 9 9 Cloudy OVC006 50 48     94%     30.31        
Nov 14 13:56 S 11 9 Cloudy OVC004 50 48     93%     30.31 30.37      
Nov 14 12:56 6 7 Cloudy OVC004 49 47     93% 46   30.31 30.36      
Nov 14 11:56 SSW 11 7 Cloudy OVC004 48 47     96% 43   30.29 30.35      
Nov 14 10:56 S 9 5 Fog/Mist OVC004 47 46     97% 43   30.28 30.34      
Nov 14 09:56 S 15 5 Fog/Mist OVC004 45 44     97% 38   30.26 30.31 0   0
Nov 14 09:30 S 15 6 Light Rain and Fog/Mist OVC004 45 45     100% 38   30.26   0    
Nov 14 08:56 SSW 15 4 Light Rain and Fog/Mist OVC006 44 43     96% 37   30.25 30.3 0    
Nov 14 08:42 SSW 11 3 Light Rain and Fog/Mist OVC008 45 43     93% 39   30.25   0    
Nov 14 08:35 SSW 11 2.5 Light Rain and Fog/Mist OVC008 45 43     93% 39   30.25   0    
Nov 14 08:26 SSW 11 2.5 Light Rain and Fog/Mist SCT006 BKN011 OVC014 45 43     93% 39   30.25   0    
Nov 14 08:13 SW 10 3 Light Rain and Fog/Mist FEW004 BKN011 OVC017 45 43     93% 39   30.25   0    
Nov 14 08:05 SSW 11 2.5 Light Rain and Fog/Mist FEW009 OVC017 45 43     93% 39       0    
Nov 14 07:56 SSW 11 2 Light Rain and Fog/Mist FEW010 SCT014 OVC019 44 43     96% 38   30.25 30.31 0    
Nov 14 07:36 SW 11 3 Light Rain and Fog/Mist FEW012 OVC023 45 43     93% 39   30.25   0    
Nov 14 07:20 SSW 14 2.5 Light Rain and Fog/Mist OVC023 45 43     93% 38   30.25   0    
Nov 14 06:13 SSW 11 8 Light Rain BKN029 OVC034 45 43     93% 39   30.24   0    
Nov 14 05:56 SW 10 6 Light Rain and Fog/Mist OVC034 44 43     96% 39   30.25   0    
Nov 14 04:56 S 6 7 Light Rain OVC038 44 41     89% 41   30.26   0    
Nov 14 02:56 SW 5 10 Cloudy OVC041 46 38     73% 44   30.26        
Nov 14 01:56 SSW 9 10 Cloudy OVC043 47 40     76% 43   30.28        
Nov 14 00:56 SSW 6 10 Cloudy OVC041 47 40     76% 44   30.3     0  
Nov 13 23:56 SW 6 10 Cloudy OVC039 45 40     82% 42   30.3   0    
Nov 13 22:56 SSW 6 10 Light Rain OVC039 46 40     79% 43   30.3   0    
Nov 13 21:56 S 8 10 Light Rain BKN065 OVC090 47 39     74% 43   30.29   0   0
Nov 13 20:56 SSW 9 10 Cloudy OVC085 48 38     68% 44   30.28        
Nov 13 19:56 SSW 9 10 Mostly Cloudy BKN095 48 38     68% 44   30.29        
Nov 13 18:56 SSW 7 10 Partly Cloudy SCT090 47 38     71% 44   30.3        
Nov 13 17:56 SSW 8 10 Clear CLR 47 37     68% 43   30.29        
Nov 13 16:56 S 6 10 Mostly Clear FEW090 48 37     66% 45   30.29        
Nov 13 14:56 SSW 9 10 Clear CLR 52 37     57%     30.32        
Nov 13 13:56 SW 9 10 Clear CLR 54 43     66%     30.32 30.38      
Nov 13 12:56 SSW 9 10 Clear   52 44     74%     30.33        
Nov 13 11:56 SW 10 10 Clear CLR 51 43     74%     30.35        
Nov 13 10:56 SW 10 10 Clear CLR 50 41     71%     30.36        
Nov 13 08:56 SW 7 10 Clear CLR 43 36     76% 39   30.36        
Nov 13 07:56 SW 5 10 Clear CLR 36 35     96% 32   30.35 30.41      
Notice The following observation data may not be complete
Nov 13 05:56 Calm 10 Clear CLR   32      %     30.35        
Notice The following observation data may not be complete
Nov 13 04:56 Calm 10 Clear CLR   31      %     30.34        
Notice The following observation data may not be complete
Nov 13 02:56 Calm 10 Clear CLR   32      %     30.35        
Nov 13 01:56 Calm 9 Clear CLR 33 31     92%     30.35        
Nov 12 23:56 Calm 10 Clear CLR 34 31     88%     30.36        
Nov 12 22:56 Calm 10 Clear CLR 33 32     96%     30.36        
Nov 12 21:56 Calm 10 Clear   35 32     88%     30.36        
Nov 12 20:56 Calm 10 Clear CLR 35 32     88%     30.36        
Nov 12 19:56 Calm 10 Clear CLR 38 33     82%     30.35        
Nov 12 17:56 Calm 10 Clear CLR 39 36     89%     30.36        
Nov 12 16:56 Calm 10 Clear CLR 43 38     82%     30.35        
Nov 12 14:56 N 3 10 Clear CLR 58 35     42%     30.37        
Nov 12 13:56 ENE 6 10 Clear CLR 57 33     40%     30.37        
Nov 12 11:56 NE 7 10 Clear CLR 55 31     40%     30.39        
Nov 12 10:56 ENE 7 10 Clear CLR 53 30     41%     30.4        
Nov 12 08:56 NE 7 10 Clear CLR 44 33     65% 40   30.42        
Nov 12 07:56 Calm 10 Clear CLR 35 32     88%     30.42        
Nov 12 05:56 NNE 5 10 Clear CLR 33 31     92% 29   30.41        
Nov 12 04:56 Calm 10 Clear CLR 32 31     96%     30.42        
Nov 12 02:56 Calm 10 Clear CLR 35 31     85%     30.42        
Nov 12 01:56 ENE 3 10 Clear CLR 40 33     76% 38   30.43        
Nov 11 23:56 NE 7 10 Clear CLR 43 35     73% 39   30.46        
Nov 11 22:56 NE 7 10 Clear CLR 40 36     86% 35   30.46        
Nov 11 20:56 ENE 8 10 Clear CLR 42 35     76% 37   30.45        
Nov 11 19:56   10 Clear CLR 42 35     76%     30.44 30.5      
Nov 11 17:56   10 Clear CLR 43 34     70%     30.42 30.48      
Nov 11 16:56   10 Clear CLR 44 35     70%     30.42 30.47      
Nov 11 15:56   10 Clear CLR 48 37     66%     30.42 30.48      
Nov 11 14:56 NE 10 10 Clear CLR 47 39     74% 42   30.42 30.48      
Nov 11 13:56 NNE 13 10 Clear CLR 48 39     71% 43   30.43        
Nov 11 12:56 NE 13 10 Clear CLR 49 38     66% 44   30.43 30.49      
Nov 11 11:56 NE 11 10 Clear CLR 49 37     63% 44   30.45        
Nov 11 10:56 NE 14 10 Clear CLR 47 38     71% 41   30.46        
Nov 11 08:56   10 Mostly Clear FEW006 42 39     89%     30.45 30.5      
Nov 11 08:48 NE 10 10 Partly Cloudy SCT006 41 39     93% 35   30.45        
Nov 11 07:56 NE 10 10 Cloudy OVC006 41 40     96% 35   30.45 30.5      
Nov 11 06:56 NNE 8 10 Cloudy BKN008 OVC011 42 40     92% 37   30.44 30.5      
Nov 11 06:34 NNE 7 10 Cloudy SCT005 OVC010 41 39     93% 36   30.44        
Nov 11 05:56 NNE 5 9 Cloudy OVC005 41 40     96% 38   30.44 30.5      
Nov 11 05:35 NE 7 10 Cloudy BKN005 OVC013 41 39     93% 36   30.43        
Nov 11 05:21 NE 6 10 Mostly Cloudy SCT005 BKN011 41 39     93% 37   30.43        
Nov 11 04:56 NNE 10 10 Partly Cloudy SCT009 41 40     96% 35   30.42 30.48      
Nov 11 04:47 NNE 9 10 Mostly Cloudy BKN009 41 39     93% 35   30.42        
Nov 11 03:56 NNE 8 10 Cloudy OVC011 42 40     92% 37   30.42 30.48      
Nov 11 03:28 NNE 8 10 Cloudy OVC013 43 39     87% 38   30.42        
Nov 11 02:56 NNE 8 10 Mostly Cloudy BKN015 41 39     93% 36   30.43 30.49      
Nov 11 02:20 NNE 6 10 Mostly Cloudy BKN015 39 39     100% 35   30.44        
Nov 11 01:56 NE 8 10 Mostly Clear FEW017 40 39     97% 34   30.43 30.49      
Nov 11 01:47 NE 8 10 Mostly Clear FEW017 41 39     93% 36   30.43        
Nov 11 01:16 NNE 10 10 Mostly Cloudy BKN017 41 39     93% 35   30.44        
Nov 11 00:56 NNE 9 10 Partly Cloudy SCT015 41 39     93% 35   30.45 30.51      
Nov 11 00:35 NNE 9 10 Mostly Clear FEW015 41 39     93% 35   30.45        
Nov 10 23:56 NNE 8 10 Cloudy OVC015 41 39     93% 36   30.45 30.51      
Nov 10 22:56 NE 7 10 Mostly Cloudy BKN017 40 38     93% 35   30.45 30.5      
Nov 10 22:36 NE 5 10 Mostly Cloudy BKN017 39 37     93% 36   30.46        
Nov 10 21:56 ENE 5 10 Clear CLR 39 37     93% 36   30.45 30.5      
Nov 10 20:56 NNE 8 10 Clear CLR 41 38     89% 36   30.44 30.49      
Nov 10 19:56 NE 8 10 Clear CLR 40 38     93% 34   30.42 30.48      
Nov 10 18:56 NE 8 10 Clear CLR 42 38     85% 37   30.41 30.47      
Nov 10 17:56 NE 3 10 Clear CLR 39 36     89% 37   30.41 30.47      
Nov 10 16:56 NNE 7 10 Clear CLR 44 39     82% 40   30.4 30.46      
Nov 10 15:56 NE 6 10 Clear CLR 47 38     71% 44   30.4 30.46      
Nov 10 14:56 ENE 8 10 Clear CLR 49 40     71% 45   30.39 30.45      
Nov 10 13:56 NE 13 10 Mostly Clear FEW023 50 39     66%     30.4 30.46      
Nov 10 12:56 NE 11 10 Clear CLR 49 39     69% 44   30.4 30.46      
Nov 10 12:16 NNE 11 10 Mostly Clear FEW015 48 41     76% 43   30.4        
Nov 10 11:56 NE 10 10 Mostly Cloudy BKN015 48 41     77% 43   30.4 30.46      
Nov 10 10:56 NE 10 10 Cloudy OVC011 45 41     86% 40   30.41 30.46      
Nov 10 10:32 NE 7 10 Cloudy OVC011 45 41     87% 41   30.41        
Nov 10 09:56 7 10 Cloudy BKN007 OVC014 44 42     93% 40   30.4 30.45     0
Nov 10 09:51 NE 8 10 Cloudy BKN009 OVC014 45 43     93% 40   30.4        
Nov 10 09:18 NE 8 10 Cloudy SCT005 OVC012 43 43     100% 38   30.39        
Nov 10 08:56 NE 6 8 Cloudy OVC003 42 42     100% 38   30.39 30.45      
Nov 10 08:33 5 9 Cloudy BKN003 BKN016 OVC028 43 41     93% 40   30.39        
Nov 10 08:04 Calm 7 Cloudy SCT003 BKN012 OVC029 43 41     93%     30.38        
Nov 10 07:56 E 3 5 Fog/Mist SCT003 BKN033 OVC042 42 41     96% 40   30.38 30.43      
Nov 10 07:44 NE 6 7 Cloudy FEW003 BKN029 OVC038 43 41     93% 39   30.37        
Nov 10 07:37 ENE 5 10 Cloudy FEW018 SCT031 OVC038 41 41     100% 38   30.37        
Nov 10 07:07 Calm 7 Cloudy BKN020 BKN025 OVC034 39 39     100%     30.36        
Nov 10 06:56 Calm 8 Cloudy SCT022 OVC034 39 39     100%     30.35 30.41   0  
Nov 10 05:56 Calm 10 Mostly Cloudy FEW036 SCT045 BKN055 40 40     100%     30.34 30.39 0    
Nov 10 05:44 Calm 9 Cloudy SCT026 BKN036 OVC055 39 39     100%     30.34   0    
Nov 10 04:56 Calm 8 Light Rain FEW018 BKN028 OVC033 40 40     100%     30.34 30.4 0    
Nov 10 04:21 Calm 5 Fog/Mist BKN028 BKN033 OVC060 39 39     100%     30.33        
Nov 10 02:56 Calm 6 Fog/Mist FEW025 SCT029 OVC046 40 39     97%     30.33 30.39      
Nov 10 02:44 Calm 5 Fog/Mist FEW025 OVC046 39 39     100%     30.33        
Nov 10 02:31 Calm 2.5 Fog/Mist SCT025 OVC048 39 39     100%     30.33        
Nov 10 01:56 Calm 4 Fog/Mist OVC027 40 39     97%     30.33 30.39      
Nov 10 01:43 Calm 4 Fog/Mist BKN027 BKN033 OVC060 39 39     100%     30.33        
Nov 10 01:18 Calm 4 Fog/Mist FEW001 OVC055 39 39     100%     30.33        
Nov 10 00:56 Calm 7 Cloudy SCT024 OVC055 40 39     97%     30.33 30.38      
Nov 10 00:27 Calm 4 Fog/Mist SCT001 OVC024 41 41     100%     30.33        
Nov 10 00:04 SSW 3 3 Fog/Mist OVC001 41 39     93% 39   30.33        
Nov 09 23:59 SSW 3 1.25 Fog/Mist OVC001 41 39     93% 39   30.33        
Nov 09 23:56 Calm 0.75 Fog/Mist OVC001 41 40     96%              
Nov 09 23:30 SSW 5 0.5 Fog BKN001 BKN025 OVC044 41 39     93% 38   30.33        
Nov 09 23:27 SSW 5 1 Fog/Mist SCT001 BKN025 OVC044 41 39     93% 38   30.33        
Nov 09 23:24 SW 3 2.5 Fog/Mist SCT001 BKN025 OVC044 41 39     93% 39   30.33        
Nov 09 22:56 SSW 3 10 Cloudy OVC041 41 40     96% 39   30.33 30.38      
Nov 09 21:56 Calm 10 Cloudy OVC039 41 40     96%     30.33 30.38      
Nov 09 20:56 Calm 7 Cloudy OVC035 41 40     96%     30.32 30.37      
Nov 09 20:08 Calm 8 Cloudy SCT020 OVC035 41 39     93%     30.31        
Nov 09 19:56 Calm 7 Cloudy BKN018 OVC035 41 40     96%     30.31 30.37      
Nov 09 18:56 W 3 10 Cloudy OVC018 42 40     92% 40   30.31 30.37      
Nov 09 17:56 Calm 10 Cloudy FEW012 OVC020 42 40     92%     30.3 30.35      
Nov 09 16:56 Calm 10 Cloudy FEW005 OVC022 42 41     96%     30.29 30.34      
Nov 09 16:52 Calm 10 Cloudy FEW005 OVC022 43 41     93%     30.29        
Nov 09 15:56 Calm 10 Cloudy FEW011 BKN016 OVC025 42 40     92%     30.29 30.34     0
Nov 09 15:47 SSW 3 10 Cloudy SCT011 BKN018 OVC025 43 39     87% 41   30.29        
Nov 09 15:38 SW 3 10 Cloudy BKN011 BKN018 OVC025 43 39     87% 41   30.29        
Nov 09 15:28 SSW 3 10 Cloudy BKN009 OVC018 43 39     87% 41   30.28        
Nov 09 14:56 SSW 3 10 Cloudy FEW009 OVC018 42 40     92% 40   30.28 30.33      
Nov 09 14:18 SSE 3 10 Cloudy BKN009 BKN015 OVC020 43 39     87% 41   30.28        
Nov 09 13:56 Calm 10 Cloudy SCT007 BKN013 OVC018 42 40     92%     30.28 30.33      
Nov 09 13:20 3 10 Cloudy BKN007 BKN012 OVC018 43 39     87% 41   30.28        
Nov 09 12:56 NE 5 8 Cloudy OVC005 42 40     92% 39   30.29 30.35   0  
Nov 09 12:05 3 9 Cloudy BKN005 OVC095 43 39     87% 41   30.29        
Nov 09 11:56 ENE 5 9 Mostly Cloudy BKN003 BKN095 41 40     96% 38   30.28 30.34 0    
Nov 09 11:46 Calm 7 Light Rain SCT003 SCT095 41 39     93%     30.28   0    
Nov 09 10:56 ENE 5 10 Light Rain FEW041 BKN060 40 39     97% 37   30.29 30.35 0    
Nov 09 09:43 Calm 6 Light Rain and Fog/Mist SCT003 SCT033 OVC047 37 37     100%     30.29   0    
Nov 09 08:56 Calm 7 Cloudy OVC003 37 37     100%     30.3 30.36      
Nov 09 08:46 Calm 9 Cloudy BKN003 OVC095 37 36     93%     30.3        
Nov 09 07:56 Calm 10 Cloudy SCT003 OVC095 35 34     96%     30.3 30.36      
Nov 09 06:56 Calm 10 Cloudy SCT004 OVC110 33 33     100%     30.31 30.36      
Nov 09 06:46 Calm 10 Cloudy BKN004 OVC120 34 32     93%     30.3        
Nov 09 05:56 Calm 10 Partly Cloudy SCT120 32 32     100%     30.32 30.38      
Nov 09 04:56 Calm 4 Fog/Mist CLR 29 28     96%     30.35 30.4      
Nov 09 04:53 Calm 3 Fog/Mist CLR 28 28     100%     30.35        
Nov 09 04:43 Calm 1.75 Fog/Mist CLR 28 28     100%     30.35        
Nov 09 02:56 Calm 10 Clear CLR 31 30     96%     30.39 30.45      
Nov 09 01:56 Calm 9 Clear CLR 28 28     100%     30.4 30.46      
Nov 08 23:56 Calm 9 Clear CLR 29 29     100%     30.44        
Nov 08 22:56 Calm 10 Clear CLR 30 29     96%     30.47        
Nov 08 21:56 Calm 10 Clear CLR 30 30     100%     30.48 30.54      
Nov 08 20:56 Calm 10 Clear CLR 31 30     96%     30.49        
Nov 08 19:56 Calm 10 Clear CLR 34 32     92%              
Nov 08 18:56 Calm 10 Clear CLR 39 35     86%     30.51        
Nov 08 17:56 ENE 3 10 Clear CLR 40 35     83% 38   30.52        
Nov 08 16:56 NNE 6 10 Clear CLR 39 34     82% 35   30.52 30.58      
Nov 08 14:56 NNE 8 10 Clear CLR 49 36     61% 45   30.53 30.58      
Nov 08 13:56 NNE 5 10 Clear CLR 49 37     63% 47   30.53 30.59      
Nov 08 12:56 ENE 3 10 Clear CLR 49 37     63% 48   30.55 30.6      
Nov 08 11:56 NE 5 10 Clear CLR 47 38     71% 45   30.56 30.62      
Nov 08 10:56 NNE 9 10 Mostly Clear FEW008 45 39     80% 40   30.58 30.64      
Nov 08 10:05 NE 8 10 Partly Cloudy SCT007 43 39     87% 38   30.57        
Nov 08 09:20 NE 6 10 Cloudy OVC007 39 39     100% 35   30.57        
Nov 08 08:56 NNE 6 10 Cloudy OVC005 40 39     97% 36   30.57 30.63      
Nov 08 08:42 N 5 10 Cloudy OVC005 39 39     100% 36   30.57        
Nov 08 08:16 NE 8 7 Cloudy OVC003 39 39     100% 34   30.56        
Nov 08 07:56 NNE 6 4 Fog/Mist OVC001 39 38     96% 35   30.56 30.61      
Nov 08 07:53 NNE 7 2 Fog/Mist OVC001 39 37     93% 34   30.56        
Nov 08 07:49 NNE 7 1 Fog/Mist OVC001 39 37     93% 34   30.56        
Nov 08 07:21 5 0.5 Fog OVC001 39 37     93% 36   30.56        
Nov 08 06:56 ENE 6 0.75 Fog/Mist OVC001 39 38     96% 35   30.55 30.61      
Nov 08 06:46 ENE 7 1.25 Fog/Mist OVC001 37 37     100% 32   30.55        
Nov 08 06:16 ENE 3 1 Fog/Mist OVC001 36 36     100% 33   30.55        
Nov 08 05:56 NNE 3 0.5 Fog BKN001 35 35     100% 32   30.56        
Nov 08 05:33 E 5 1 Fog/Mist VV001 30 30     100% 25   30.54        
Nov 08 05:21 Calm 0.5 Fog CLR 28 28     100%     30.54        
Nov 08 05:10 Calm 0.75 Fog/Mist CLR 28 28     100%     30.55        
Nov 08 05:05 Calm 1.25 Fog/Mist CLR 28 28     100%     30.55        
Nov 08 05:03 Calm 0.75 Fog/Mist CLR 28 28     100%     30.55        
Notice The following observation data may not be complete
Nov 08 04:56 Calm 0.25 Fog CLR   28      %     30.55 30.6      
Nov 08 04:54 Calm 0.25 Fog CLR 28 28     100%     30.55        
Nov 08 04:44 Calm 0.5 Fog CLR 28 28     100%     30.55        
Nov 08 04:34 Calm 1 Fog/Mist CLR 28 28     100%     30.55        
Nov 08 04:25 Calm 2.5 Fog/Mist CLR 28 28     100%              
Nov 08 04:23 Calm 0.75 Fog/Mist CLR 28 28     100%     30.55        
Nov 08 04:11 Calm 0.25 Fog CLR 28 28     100%     30.55        
Nov 08 04:03 Calm 0.75 Fog/Mist CLR 30 28     93%     30.55        
Nov 08 03:52 Calm 0.25 Fog CLR 30 30     100%     30.55        
Nov 08 03:43 Calm 0.5 Fog CLR 30 28     93%     30.55        
Nov 08 03:41 Calm 1 Fog/Mist CLR 30 28     93%     30.55        
Nov 08 03:37 Calm 2 Fog/Mist CLR 30 30     100%     30.55        
Nov 08 03:33 Calm 0.75 Fog/Mist CLR 30 30     100%     30.55        
Notice The following observation data may not be complete
Nov 08 03:23 Calm 0.25 Fog CLR   28      %     30.55        
Nov 08 03:15 Calm 0.5 Fog CLR 30 28     93%     30.55        
Nov 08 03:11 Calm 1.75 Fog/Mist CLR 30 28     93%     30.55        
Nov 08 02:56 Calm 5 Fog/Mist CLR 31 30     96%     30.55 30.6      
Nov 08 02:53 Calm 3 Fog/Mist CLR 30 30     100%     30.54        
Nov 08 02:43 Calm 1.75 Fog/Mist CLR 30 30     100%     30.55        
Nov 08 02:19 Calm 4 Fog/Mist CLR 32 32     100%     30.54        
Nov 08 02:12 Calm 2.5 Fog/Mist FEW010 30 30     100%     30.54        
Nov 08 01:56 Calm 9 Mostly Clear FEW009 32 31     96%     30.54 30.59      
Nov 08 01:50 Calm 3 Fog/Mist FEW011 32 30     93%     30.54        
Nov 08 01:47 Calm 1.75 Fog/Mist FEW011 32 32     100%     30.54        
Nov 08 01:39 Calm 2.5 Fog/Mist SCT011 34 32     93%     30.54        
Nov 07 23:56 Calm 10 Cloudy OVC013 31 31     100%     30.53 30.58      
Nov 07 23:33 Calm 10 Mostly Cloudy BKN013 30 30     100%     30.53        
Nov 07 22:56 Calm 9 Clear CLR 30 29     96%     30.52 30.57      
Nov 07 20:56 Calm 10 Clear CLR 32 31     96%     30.49 30.55      
Nov 07 20:39 Calm 10 Clear CLR 32 30     93%     30.48        
Nov 07 20:31 Calm 2 Fog/Mist CLR 32 30     93%     30.48        
Nov 07 20:09 Calm 3 Fog/Mist CLR 34 32     93%              
Notice The following observation data may not be complete
Nov 07 20:00 Calm 1.75 Fog/Mist CLR   30      %     30.48        
Notice The following observation data may not be complete
Nov 07 19:56 Calm 10 Clear CLR   31      %     30.47 30.53      
Nov 07 18:56 Calm 10 Clear CLR 35 34     96%     30.47        
Nov 07 18:47 Calm 10 Clear CLR 36 36     100%     30.47        
Nov 07 18:38 Calm 2 Fog/Mist CLR 36 36     100%     30.47        
Nov 07 17:56 Calm 10 Clear CLR 37 35     92%     30.46 30.51      
Nov 07 16:56 NNE 6 10 Clear CLR 43 38     82% 39   30.45        
Nov 07 15:56 ENE 6 10 Clear CLR 49 40     71% 46   30.45        
Nov 07 14:56 ENE 9 10 Mostly Clear FEW027 51 41     68%     30.43 30.49      
Nov 07 13:56 ENE 8 10 Partly Cloudy SCT029 52 41     66%     30.43 30.49      
Nov 07 12:56 NE 11 10 Clear CLR 52 40     63%     30.42 30.48      
Nov 07 11:56 NE 7 10 Mostly Clear FEW023 51 41     68%     30.42 30.48      
Nov 07 11:43 N 7 10 Partly Cloudy SCT023 52 41     67%     30.42        
Nov 07 11:25 NE 9 10 Mostly Cloudy BKN023 52 41     67%     30.42        
Nov 07 10:56 NNE 7 10 Mostly Clear FEW023 51 41     68%     30.42 30.47      
Nov 07 08:56 Calm 10 Clear CLR 45 42     90%     30.39 30.45      
May 15 09:04 SW 8 10 Cloudy OVC007 55 52     88%     29.96        
May 14 08:56 Calm 10 Clear CLR 62 54     75%     29.97 30.01      
May 14 07:56 SSW 6 10 Clear CLR 58 54     87%     29.98        
Notice The following observation data may not be complete
May 13 20:56 Calm 10 Clear CLR   52      %     29.9        
May 13 12:56 NNE 7 10 Clear CLR 75 55     50%   75 29.95        
May 13 02:56 Calm 10 Clear CLR 47 44     90%     29.97 30.01      
May 12 17:56 ENE 9 10 Clear CLR 74 48     40%   73 29.99        
May 12 01:56 Calm 10 Clear CLR 45 45     100%     30.2        
May 12 00:56 Calm 10 Clear CLR 47 46     97%     30.2        
May 11 15:56 Calm 10 Mostly Cloudy BKN033 63 49     60%     30.23        
May 11 12:56 SSE 5 10 Cloudy BKN024 OVC028 57 49     74%     30.27 30.33      
May 11 07:56 Calm 10 Cloudy BKN019 OVC027 49 47     93%     30.27 30.32      
Jun 11 09:56 SSW 3 10 Cloudy OVC005 52 49     89%     30.06        
Jun 10 19:56 NNE 5 10 Clear CLR 62 45     53%     29.9 29.95      
Jun 10 15:56 WSW 3 10 Cloudy SCT046 OVC060 61 46     58%     29.86        
Notice The following observation data may not be complete
Jun 10 08:40   10 Cloudy OVC006          %              
Jun 10 02:15 WSW 7 10 Cloudy OVC004 48 46     93% 45   29.87        
Jun 09 16:56 SSW 8 10 Light Rain FEW026 58 46     65%     29.83 29.89 0   0
Jun 09 04:36 Calm 10 Cloudy SCT021 BKN028 OVC048 48 46     93%     29.93        
Jun 08 09:48 SSW 9 10 Light Rain BKN006 OVC030 55 54     94%     29.68   0    
Jun 08 04:56 SW 3 10 Light Rain SCT002 BKN010 OVC043 52 52     100%     29.64   0   0
Jun 07 09:56 Calm 10 Clear   67 49     52%     29.8        
Jun 06 02:56 E 5 10 Clear   54 43     66%     30.03        
Jun 05 16:56 ENE 9 10 Clear   71 39     31%   69 30.07